Miscellaneous Local Product
Issued by NWS Hastings, NE

Home | Current Version | Previous Version | Text Only | Print | Product List | Glossary Off
Versions: 1 2 3 4 5 6 7 8 9 10 11 12 13 14 15 16 17 18 19 20 21 22 23 24 25 26 27 28 29 30 31 32 33 34 35 36 37 38 39 40 41 42 43 44 45 46 47 48 49 50

740
AXUS43 KGID 211702
MISGRI

GID CWA HOURLY WEATHER ROUNDUP
NATIONAL WEATHER SERVICE HASTINGS NE
1200 PM CDT MON AUG 21 2017

NOTE: "FAIR" INDICATES FEW OR NO CLOUDS BELOW 12,000 FEET WITH NO
SIGNIFICANT WEATHER AND/OR OBSTRUCTIONS TO VISIBILITY.

...SOUTH CENTRAL NEBRASKA...

CITY           SKY/WX    TMP DP  RH WIND       PRES   REMARKS
GRAND ISLAND   MOSUNNY   83  69  62 S13       29.94F
HASTINGS       CLOUDY    81  66  60 S9G18     29.96F
KEARNEY        CLOUDY    83  67  58 S18       29.94F
ORD            SUNNY     81  68  64 S10       29.91R
YORK           CLOUDY    77  72  83 SE14      29.97S
AURORA         PTSUNNY   81  70  69 S13       29.95F
LEXINGTON      SUNNY     83  67  59 S9        29.93F
HOLDREGE       MOSUNNY   82  65  55 S13G18    29.96S
HEBRON         CLOUDY    81  67  62 SE7       29.99R

...NEBRASKA PANHANDLE...

CITY           SKY/WX    TMP DP  RH WIND       PRES   REMARKS
CHADRON        MOSUNNY   79  57  46 N10G21    30.07R
ALLIANCE       SUNNY     76  59  55 N22       30.06R
SCOTTSBLUFF    SUNNY     81  56  42 NW10      30.08R
SIDNEY         SUNNY     84  53  34 N16       30.07R

...WESTERN AND NORTH CENTRAL NEBRASKA...

CITY           SKY/WX    TMP DP  RH WIND       PRES   REMARKS
VALENTINE      LGT RAIN  64  60  87 N13       30.01R FOG
AINSWORTH      CLOUDY    73  73 100 NW6       29.98R FOG
ONEILL         CLOUDY    75  72  91 SE3       29.92F
BROKEN BOW     SUNNY     85  69  58 SW9       29.92F
IMPERIAL       SUNNY     83  64  52 VRB3      29.98R
NORTH PLATTE   SUNNY     82  70  66 S5        29.94F
MCCOOK         SUNNY     86  63  45 S13       29.95F

...EASTERN NEBRASKA...

CITY           SKY/WX    TMP DP  RH WIND       PRES   REMARKS
NORFOLK        SUNNY     80  70  71 S18       29.93S
SO SIOUX CITY  SUNNY     79  70  74 S16G25    29.94F
TEKAMAH        MOSUNNY   80  68  66 S15G26    29.96F
ALBION         MOSUNNY   80  72  76 S13       29.92F
OMAHA EPPLEY   PTSUNNY   79  65  62 SE20      29.98F
OFFUTT AFB     MOSUNNY   78  67  68 SE14G24   29.98F
MILLARD        CLOUDY    79  69  71 S18       29.98F
LINCOLN        MOSUNNY   80  71  74 SE13      29.98F
NEBRASKA CITY  PTSUNNY   74  71  92 SE13      30.01F
BEATRICE       CLOUDY    80  70  71 SE12      29.98F
FALLS CITY     CLOUDY    75  72  90 E13       30.01F

...NORTHERN KANSAS...

CITY           SKY/WX    TMP DP  RH WIND       PRES   REMARKS
GOODLAND       MOSUNNY   81  59  47 S16       30.00S
HILL CITY      CLOUDY    83  65  54 S14G23    29.99F
NORTON         SUNNY     88  57  35 S17G23    29.97R
PHILLIPSBURG   SUNNY     84  63  48 S18G24    29.96S
SMITH CENTER   PTSUNNY   82  64  54 S13G22    29.98S
HAYS           LGT RAIN  78  67  68 S17G23    30.00F
RUSSELL        CLOUDY    80  68  66 S16G23    29.99F
CONCORDIA      PTSUNNY   85  66  53 SW15      29.99R
SALINA         PTSUNNY   78  71  79 S10       30.01S
TOPEKA         MOSUNNY   86  74  67 CALM      30.03R HX  94



USA.gov is the U.S. government's official web portal to all federal, state and local government web resources and services.